Location: Roanoke
(37.2710°N, 79.9420°W)
Time: 05:15:23
(UTC-05:00)

Courier 1B Rocket - Pass Details

Date: 19 November 2019
Orbit: 920 x 1202 km, 28.2° (Epoch: 05 December)

Event Time Altitude Azimuth Distance (km) Brightness Sun altitude
Rises 12:54:04 0° 200° (SSW) 3,679 9.1 32.1°
Reaches altitude 10° 12:58:39 10° 172° (S) 2,800 8.6 31.8°
Maximum altitude 13:01:09 12° 150° (SSE) 2,680 8.1 31.7°
Drops below altitude 10° 13:03:42 10° 128° (SE) 2,882 7.8 31.6°
Sets 13:08:35 0° 100° (E) 3,916 8.1 31.3°
